星链-35153(STARLINK-35153)

导读 | 豆包AI

STARLINK-35153是美国SpaceX星链星座的成员卫星,于2025年9月18日发射入轨,星链系统是全球低轨卫星互联网星座,该卫星承担全球偏远区域网络覆盖、信号补盲任务,依托低轨道运行优势可降低通信时延,为用户提供宽带互联网接入服务,推进全球无缝网络覆盖建设。

基本信息
目录编号:
65625
目录名称:
STARLINK-35153
国际标识:
2025-210D
轨道中心:
EARTH
卫星名称:
星链-35153
卫星全名:
星链-35153(STARLINK-35153)
卫星状态:
在轨 (已飞行198 天)
发射日期:
2025-09-18 UTC
国别 :
美国 (US)
星等 :
--
轨道信息
数据来源 国际轨道数据 AOE轨道数据
星历时间 2026-04-04T00:35:11+0800
18小时前
查看轨道信息
2026-04-02T09:00:00+0800
2天前
查看轨道信息
半长轴 6853.496km 6853.369km
偏心率 0.000102 0.0001213
轨道倾角 53.158° 53.158°
近地点辐角 43.983° 59.148°
升交点赤经 190.613° 198.277°
平近点角 316.125° 209.661°
近地点 474.659km 474.4km
远地点 476.059km 476.064km
周期 94.108分钟 94.106分钟
每日圈数 15.301518 15.301946
详细信息
固有亮度:
5
最大亮度:
2.5
卫星平台:
Starlink V1.0
覆盖范围:
全球
运营商:
太空探索技术公司
运营商所在国:
美国
制造商(研发单位):
太空探索技术公司
制造商所在国:
美国
使用方式:
暂无
卫星简介
Starlink 计划是 SpaceX 推出的全球卫星互联网项目,通过发射低轨道卫星,为全球尤其是偏远地区提供高速、低延迟的互联网服务。自 2019 年起,Starlink 已部署数千颗卫星,旨在缩小全球数字鸿沟,推动互联网普及。该项目还为军事、航空等行业提供通信支持,带来广泛经济效益。
2D轨道图
3D轨道图
轨道高度分析图
轨道倾角分析图
轨道综合分析图
查看轨道综合分析图